Time,TemperatureF,DewpointF,PressureIn,WindDirection,WindDirectionDegrees,WindSpeedMPH,WindSpeedGustMPH,Humidity,HourlyPrecipIn,Conditions,Clouds,dailyrainin,SoftwareType,DateUTC
2013-02-28 00:01:00,20.0,6.0,29.99,South,180,0.0,0.0,54,0.00,,,0.00,,2013-02-28 08:01:00,
2013-02-28 00:11:00,20.0,6.0,29.99,South,180,0.0,0.0,54,0.00,,,0.00,,2013-02-28 08:11:00,
2013-02-28 00:21:00,19.0,6.0,29.99,South,186,0.0,1.0,55,0.00,,,0.00,,2013-02-28 08:21:00,
2013-02-28 00:31:00,19.0,6.0,29.99,SSW,203,0.0,1.0,55,0.00,,,0.00,,2013-02-28 08:31:00,
2013-02-28 00:41:00,19.0,6.0,29.99,SSW,203,0.0,1.0,55,0.00,,,0.00,,2013-02-28 08:41:00,
2013-02-28 00:52:00,18.0,5.0,30.00,SSW,203,1.0,1.0,55,0.00,,,0.00,,2013-02-28 08:52:00,
2013-02-28 01:02:00,18.0,5.0,29.99,SSW,203,0.0,0.0,56,0.00,,,0.00,,2013-02-28 09:02:00,
2013-02-28 01:11:00,18.0,5.0,29.99,SSW,203,0.0,0.0,56,0.00,,,0.00,,2013-02-28 09:11:00,
2013-02-28 01:21:00,18.0,5.0,30.00,SW,225,0.0,0.0,57,0.00,,,0.00,,2013-02-28 09:21:00,
2013-02-28 01:31:00,17.0,5.0,30.00,SSW,203,0.0,0.0,58,0.00,,,0.00,,2013-02-28 09:31:00,
2013-02-28 01:41:00,17.0,5.0,30.00,SSW,203,0.0,0.0,58,0.00,,,0.00,,2013-02-28 09:41:00,
2013-02-28 01:52:00,17.0,5.0,30.00,SW,225,0.0,0.0,58,0.00,,,0.00,,2013-02-28 09:52:00,
2013-02-28 02:01:00,16.0,4.0,30.00,SSW,203,0.0,0.0,59,0.00,,,0.00,,2013-02-28 10:01:00,
2013-02-28 02:11:00,16.0,5.0,30.00,North,0,0.0,0.0,60,0.00,,,0.00,,2013-02-28 10:11:00,
2013-02-28 02:21:00,16.0,5.0,30.00,North,0,0.0,0.0,60,0.00,,,0.00,,2013-02-28 10:21:00,
2013-02-28 02:31:00,16.0,5.0,30.00,SSW,203,0.0,0.0,61,0.00,,,0.00,,2013-02-28 10:31:00,
2013-02-28 02:41:00,16.0,5.0,30.00,SSW,203,0.0,0.0,61,0.00,,,0.00,,2013-02-28 10:41:00,
2013-02-28 02:51:00,16.0,5.0,29.99,SSW,203,0.0,0.0,61,0.00,,,0.00,,2013-02-28 10:51:00,
2013-02-28 03:01:00,15.0,4.0,29.99,NNW,338,0.0,0.0,61,0.00,,,0.00,,2013-02-28 11:01:00,
2013-02-28 03:11:00,15.0,4.0,29.99,NNW,338,0.0,0.0,61,0.00,,,0.00,,2013-02-28 11:11:00,
2013-02-28 03:21:00,15.0,4.0,29.99,SSE,158,0.0,0.0,61,0.00,,,0.00,,2013-02-28 11:21:00,
2013-02-28 03:31:00,15.0,4.0,29.99,ESE,120,0.0,0.0,62,0.00,,,0.00,,2013-02-28 11:31:00,
2013-02-28 03:41:00,15.0,4.0,29.99,ESE,120,0.0,0.0,62,0.00,,,0.00,,2013-02-28 11:41:00,
2013-02-28 03:52:00,15.0,4.0,29.99,ESE,113,0.0,0.0,62,0.00,,,0.00,,2013-02-28 11:52:00,
2013-02-28 04:01:00,15.0,5.0,29.98,SSE,158,0.0,0.0,63,0.00,,,0.00,,2013-02-28 12:01:00,
2013-02-28 04:11:00,15.0,5.0,29.98,SSE,158,0.0,0.0,63,0.00,,,0.00,,2013-02-28 12:11:00,
2013-02-28 04:21:00,15.0,5.0,29.98,SSE,159,0.0,0.0,63,0.00,,,0.00,,2013-02-28 12:21:00,
2013-02-28 04:31:00,15.0,5.0,29.98,SE,135,1.0,1.0,64,0.00,,,0.00,,2013-02-28 12:31:00,
2013-02-28 04:42:00,15.0,5.0,29.98,SE,135,1.0,1.0,64,0.00,,,0.00,,2013-02-28 12:42:00,
2013-02-28 04:52:00,16.0,6.0,29.98,East,99,0.0,1.0,63,0.00,,,0.00,,2013-02-28 12:52:00,
2013-02-28 05:01:00,16.0,6.0,29.98,SSW,193,0.0,0.0,63,0.00,,,0.00,,2013-02-28 13:01:00,
2013-02-28 05:11:00,16.0,6.0,29.98,SE,133,0.0,0.0,63,0.00,,,0.00,,2013-02-28 13:11:00,
2013-02-28 05:21:00,16.0,6.0,29.98,SE,133,0.0,0.0,63,0.00,,,0.00,,2013-02-28 13:21:00,
2013-02-28 05:32:00,15.0,5.0,29.99,West,270,0.0,0.0,64,0.00,,,0.00,,2013-02-28 13:32:00,
2013-02-28 05:41:00,15.0,5.0,29.99,West,270,0.0,0.0,64,0.00,,,0.00,,2013-02-28 13:41:00,
2013-02-28 05:51:00,15.0,5.0,29.99,NE,45,0.0,0.0,64,0.00,,,0.00,,2013-02-28 13:51:00,
2013-02-28 06:01:00,14.0,4.0,30.00,SW,225,0.0,0.0,65,0.00,,,0.00,,2013-02-28 14:01:00,
2013-02-28 06:11:00,14.0,4.0,29.99,SSE,161,0.0,0.0,65,0.00,,,0.00,,2013-02-28 14:11:00,
2013-02-28 06:21:00,14.0,4.0,29.99,SSE,161,0.0,0.0,65,0.00,,,0.00,,2013-02-28 14:21:00,
2013-02-28 06:31:00,14.0,5.0,30.00,South,187,0.0,0.0,66,0.00,,,0.00,,2013-02-28 14:31:00,
2013-02-28 06:41:00,14.0,5.0,30.00,SSW,203,0.0,0.0,66,0.00,,,0.00,,2013-02-28 14:41:00,
2013-02-28 06:52:00,14.0,5.0,30.00,SSW,203,0.0,0.0,66,0.00,,,0.00,,2013-02-28 14:52:00,
2013-02-28 07:02:00,14.0,5.0,30.00,South,180,0.0,0.0,67,0.00,,,0.00,,2013-02-28 15:02:00,
2013-02-28 07:11:00,15.0,6.0,30.00,SSW,203,0.0,0.0,67,0.00,,,0.00,,2013-02-28 15:11:00,
2013-02-28 07:21:00,15.0,6.0,30.00,SSW,203,0.0,0.0,67,0.00,,,0.00,,2013-02-28 15:21:00,
2013-02-28 07:32:00,16.0,7.0,30.00,NNE,23,0.0,0.0,67,0.00,,,0.00,,2013-02-28 15:32:00,
2013-02-28 07:41:00,16.0,7.0,30.00,NNE,23,0.0,0.0,67,0.00,,,0.00,,2013-02-28 15:41:00,
2013-02-28 07:51:00,20.0,11.0,30.01,ENE,68,0.0,0.0,66,0.00,,,0.00,,2013-02-28 15:51:00,
2013-02-28 08:01:00,26.0,15.0,30.02,North,0,0.0,0.0,62,0.00,,,0.00,,2013-02-28 16:01:00,
2013-02-28 08:11:00,28.0,14.0,30.02,North,0,0.0,1.0,56,0.00,,,0.00,,2013-02-28 16:11:00,
2013-02-28 08:21:00,28.0,14.0,30.02,North,0,0.0,1.0,56,0.00,,,0.00,,2013-02-28 16:21:00,
2013-02-28 08:31:00,35.0,18.0,30.03,ENE,65,1.0,1.0,50,0.00,,,0.00,,2013-02-28 16:31:00,
2013-02-28 08:52:00,36.0,17.0,30.03,NE,52,2.0,5.0,45,0.00,,,0.00,,2013-02-28 16:52:00,
2013-02-28 09:01:00,39.0,18.0,30.03,North,0,5.0,7.0,42,0.00,,,0.00,,2013-02-28 17:01:00,
2013-02-28 09:11:00,40.0,17.0,30.03,North,358,2.0,6.0,39,0.00,,,0.00,,2013-02-28 17:11:00,
2013-02-28 09:32:00,40.0,17.0,30.03,NE,36,5.0,7.0,39,0.00,,,0.00,,2013-02-28 17:32:00,
2013-02-28 09:52:00,39.0,16.0,30.04,North,0,3.0,6.0,38,0.00,,,0.00,,2013-02-28 17:52:00,
2013-02-28 10:01:00,40.0,16.0,30.04,North,8,8.0,9.0,37,0.00,,,0.00,,2013-02-28 18:01:00,
2013-02-28 10:11:00,41.0,16.0,30.04,NNE,18,7.0,11.0,36,0.00,,,0.00,,2013-02-28 18:11:00,
2013-02-28 10:21:00,41.0,16.0,30.04,NNE,18,7.0,11.0,36,0.00,,,0.00,,2013-02-28 18:21:00,
2013-02-28 10:31:00,43.0,17.0,30.03,NNE,15,5.0,9.0,35,0.00,,,0.00,,2013-02-28 18:31:00,
2013-02-28 10:41:00,44.0,17.0,30.03,NNE,21,3.0,7.0,34,0.00,,,0.00,,2013-02-28 18:41:00,
2013-02-28 10:52:00,44.0,17.0,30.03,NNE,21,3.0,7.0,34,0.00,,,0.00,,2013-02-28 18:52:00,
2013-02-28 11:01:00,46.0,17.0,30.03,NNW,342,3.0,10.0,31,0.00,,,0.00,,2013-02-28 19:01:00,
2013-02-28 11:11:00,46.0,17.0,30.03,NNW,346,4.0,10.0,31,0.00,,,0.00,,2013-02-28 19:11:00,
2013-02-28 11:21:00,46.0,17.0,30.03,NNW,346,4.0,10.0,31,0.00,,,0.00,,2013-02-28 19:21:00,
2013-02-28 11:31:00,48.0,17.0,30.03,North,356,3.0,11.0,29,0.00,,,0.00,,2013-02-28 19:31:00,
2013-02-28 11:51:00,48.0,16.0,30.03,North,354,6.0,9.0,28,0.00,,,0.00,,2013-02-28 19:51:00,
2013-02-28 12:01:00,48.0,16.0,30.03,NNW,336,7.0,9.0,27,0.00,,,0.00,,2013-02-28 20:01:00,
2013-02-28 12:11:00,48.0,16.0,30.03,NNW,336,7.0,9.0,27,0.00,,,0.00,,2013-02-28 20:11:00,
2013-02-28 12:21:00,47.0,15.0,30.03,North,9,6.0,11.0,27,0.00,,,0.00,,2013-02-28 20:21:00,
2013-02-28 12:31:00,48.0,16.0,30.03,NNW,328,4.0,10.0,28,0.00,,,0.00,,2013-02-28 20:31:00,
2013-02-28 12:41:00,48.0,16.0,30.03,NNW,328,4.0,10.0,28,0.00,,,0.00,,2013-02-28 20:41:00,
2013-02-28 12:52:00,47.0,16.0,30.03,North,0,5.0,10.0,28,0.00,,,0.00,,2013-02-28 20:52:00,
2013-02-28 13:01:00,47.0,16.0,30.02,WNW,301,4.0,7.0,29,0.00,,,0.00,,2013-02-28 21:01:00,
2013-02-28 13:11:00,47.0,16.0,30.02,WNW,301,4.0,7.0,29,0.00,,,0.00,,2013-02-28 21:11:00,
2013-02-28 13:22:00,48.0,17.0,30.02,North,356,5.0,11.0,29,0.00,,,0.00,,2013-02-28 21:22:00,
2013-02-28 13:31:00,48.0,16.0,30.03,North,7,4.0,9.0,28,0.00,,,0.00,,2013-02-28 21:31:00,
2013-02-28 13:41:00,48.0,16.0,30.03,North,7,4.0,9.0,28,0.00,,,0.00,,2013-02-28 21:41:00,
2013-02-28 13:51:00,48.0,16.0,30.03,WSW,237,4.0,7.0,28,0.00,,,0.00,,2013-02-28 21:51:00,
2013-02-28 14:01:00,49.0,17.0,30.03,WNW,284,4.0,9.0,28,0.00,,,0.00,,2013-02-28 22:01:00,
2013-02-28 14:11:00,49.0,17.0,30.03,North,351,4.0,7.0,28,0.00,,,0.00,,2013-02-28 22:11:00,
2013-02-28 14:21:00,49.0,17.0,30.03,North,351,4.0,7.0,28,0.00,,,0.00,,2013-02-28 22:21:00,
2013-02-28 14:31:00,49.0,16.0,30.03,West,272,9.0,12.0,27,0.00,,,0.00,,2013-02-28 22:31:00,
2013-02-28 14:41:00,49.0,16.0,30.03,West,272,9.0,12.0,27,0.00,,,0.00,,2013-02-28 22:41:00,
2013-02-28 14:52:00,49.0,17.0,30.03,NW,319,5.0,9.0,28,0.00,,,0.00,,2013-02-28 22:52:00,
2013-02-28 15:01:00,49.0,18.0,30.04,WNW,282,5.0,11.0,29,0.00,,,0.00,,2013-02-28 23:01:00,
2013-02-28 15:11:00,49.0,17.0,30.04,WNW,298,4.0,7.0,28,0.00,,,0.00,,2013-02-28 23:11:00,
2013-02-28 15:21:00,49.0,17.0,30.04,WNW,298,4.0,7.0,28,0.00,,,0.00,,2013-02-28 23:21:00,
2013-02-28 15:31:00,49.0,18.0,30.03,WSW,240,4.0,6.0,29,0.00,,,0.00,,2013-02-28 23:31:00,
2013-02-28 15:41:00,49.0,18.0,30.03,WSW,240,4.0,6.0,29,0.00,,,0.00,,2013-02-28 23:41:00,
2013-02-28 15:52:00,49.0,18.0,30.03,WNW,289,3.0,8.0,29,0.00,,,0.00,,2013-02-28 23:52:00,
2013-02-28 16:01:00,48.0,18.0,30.03,NW,317,1.0,5.0,30,0.00,,,0.00,,2013-03-01 00:01:00,
2013-02-28 16:11:00,48.0,18.0,30.03,NW,317,1.0,5.0,30,0.00,,,0.00,,2013-03-01 00:11:00,
2013-02-28 16:22:00,48.0,19.0,30.03,North,6,2.0,3.0,31,0.00,,,0.00,,2013-03-01 00:22:00,
2013-02-28 16:32:00,47.0,19.0,30.03,West,261,4.0,5.0,32,0.00,,,0.00,,2013-03-01 00:32:00,
2013-02-28 16:41:00,47.0,19.0,30.03,West,261,4.0,5.0,32,0.00,,,0.00,,2013-03-01 00:41:00,
2013-02-28 16:51:00,47.0,19.0,30.03,NNW,330,1.0,8.0,32,0.00,,,0.00,,2013-03-01 00:51:00,
2013-02-28 17:01:00,45.0,18.0,30.04,NNW,334,1.0,3.0,34,0.00,,,0.00,,2013-03-01 01:01:00,
2013-02-28 17:11:00,44.0,17.0,30.04,West,276,2.0,3.0,34,0.00,,,0.00,,2013-03-01 01:11:00,
2013-02-28 17:21:00,44.0,17.0,30.04,West,276,2.0,3.0,34,0.00,,,0.00,,2013-03-01 01:21:00,
2013-02-28 17:31:00,42.0,18.0,30.05,NNW,338,0.0,1.0,37,0.00,,,0.00,,2013-03-01 01:31:00,
2013-02-28 17:41:00,42.0,18.0,30.05,NNW,338,0.0,1.0,37,0.00,,,0.00,,2013-03-01 01:41:00,
2013-02-28 17:51:00,41.0,17.0,30.05,SSW,194,1.0,1.0,38,0.00,,,0.00,,2013-03-01 01:51:00,
2013-02-28 18:01:00,38.0,17.0,30.05,SSW,212,1.0,3.0,42,0.00,,,0.00,,2013-03-01 02:01:00,
2013-02-28 18:11:00,37.0,17.0,30.06,SSW,196,1.0,3.0,44,0.00,,,0.00,,2013-03-01 02:11:00,
2013-02-28 18:21:00,37.0,17.0,30.06,SSW,196,1.0,3.0,44,0.00,,,0.00,,2013-03-01 02:21:00,
2013-02-28 18:31:00,35.0,16.0,30.06,SSE,157,1.0,1.0,46,0.00,,,0.00,,2013-03-01 02:31:00,
2013-02-28 18:41:00,35.0,16.0,30.06,SSE,157,1.0,1.0,46,0.00,,,0.00,,2013-03-01 02:41:00,
2013-02-28 18:52:00,34.0,16.0,30.07,SE,140,0.0,1.0,47,0.00,,,0.00,,2013-03-01 02:52:00,
2013-02-28 19:01:00,34.0,16.0,30.07,SW,225,0.0,1.0,48,0.00,,,0.00,,2013-03-01 03:01:00,
2013-02-28 19:11:00,33.0,16.0,30.07,ESE,113,1.0,1.0,49,0.00,,,0.00,,2013-03-01 03:11:00,
2013-02-28 19:21:00,33.0,16.0,30.07,ESE,113,1.0,1.0,49,0.00,,,0.00,,2013-03-01 03:21:00,
2013-02-28 19:32:00,32.0,16.0,30.08,SSW,198,0.0,0.0,51,0.00,,,0.00,,2013-03-01 03:32:00,
2013-02-28 19:41:00,32.0,16.0,30.08,SSW,198,0.0,0.0,51,0.00,,,0.00,,2013-03-01 03:41:00,
2013-02-28 19:51:00,32.0,16.0,30.08,South,180,1.0,1.0,52,0.00,,,0.00,,2013-03-01 03:51:00,
2013-02-28 20:01:00,31.0,15.0,30.08,WSW,240,1.0,1.0,52,0.00,,,0.00,,2013-03-01 04:01:00,
2013-02-28 20:11:00,31.0,15.0,30.08,WSW,240,1.0,1.0,52,0.00,,,0.00,,2013-03-01 04:11:00,
2013-02-28 20:21:00,31.0,15.0,30.08,South,188,0.0,1.0,52,0.00,,,0.00,,2013-03-01 04:21:00,
2013-02-28 20:31:00,31.0,16.0,30.09,NNW,338,0.0,0.0,54,0.00,,,0.00,,2013-03-01 04:31:00,
2013-02-28 20:41:00,31.0,16.0,30.09,NNW,338,0.0,0.0,54,0.00,,,0.00,,2013-03-01 04:41:00,
2013-02-28 20:51:00,30.0,16.0,30.09,SSE,161,0.0,1.0,55,0.00,,,0.00,,2013-03-01 04:51:00,
2013-02-28 21:01:00,29.0,15.0,30.10,SE,135,0.0,0.0,56,0.00,,,0.00,,2013-03-01 05:01:00,
2013-02-28 21:11:00,29.0,15.0,30.10,SE,135,0.0,0.0,56,0.00,,,0.00,,2013-03-01 05:11:00,
2013-02-28 21:22:00,29.0,16.0,30.10,SW,225,0.0,0.0,57,0.00,,,0.00,,2013-03-01 05:22:00,
2013-02-28 21:32:00,29.0,16.0,30.11,SE,135,0.0,1.0,58,0.00,,,0.00,,2013-03-01 05:32:00,
2013-02-28 21:41:00,29.0,16.0,30.11,SE,135,0.0,1.0,58,0.00,,,0.00,,2013-03-01 05:41:00,
2013-02-28 21:52:00,28.0,15.0,30.11,ESE,113,0.0,0.0,58,0.00,,,0.00,,2013-03-01 05:52:00,
2013-02-28 22:01:00,28.0,16.0,30.11,SSW,203,0.0,0.0,60,0.00,,,0.00,,2013-03-01 06:01:00,
2013-02-28 22:11:00,28.0,16.0,30.11,SSW,196,0.0,1.0,61,0.00,,,0.00,,2013-03-01 06:11:00,
2013-02-28 22:21:00,28.0,16.0,30.11,SSW,196,0.0,1.0,61,0.00,,,0.00,,2013-03-01 06:21:00,
2013-02-28 22:31:00,27.0,16.0,30.11,South,179,0.0,0.0,62,0.00,,,0.00,,2013-03-01 06:31:00,
2013-02-28 22:41:00,27.0,16.0,30.11,South,179,0.0,0.0,62,0.00,,,0.00,,2013-03-01 06:41:00,
2013-02-28 22:52:00,27.0,16.0,30.11,SSE,158,0.0,1.0,62,0.00,,,0.00,,2013-03-01 06:52:00,
2013-02-28 23:01:00,27.0,16.0,30.11,SSW,203,0.0,0.0,62,0.00,,,0.00,,2013-03-01 07:01:00,
2013-02-28 23:11:00,27.0,16.0,30.11,SSW,203,0.0,0.0,62,0.00,,,0.00,,2013-03-01 07:11:00,
2013-02-28 23:21:00,26.0,15.0,30.11,SSW,203,0.0,0.0,63,0.00,,,0.00,,2013-03-01 07:21:00,
2013-02-28 23:32:00,26.0,16.0,30.11,WNW,283,0.0,1.0,65,0.00,,,0.00,,2013-03-01 07:32:00,
2013-02-28 23:41:00,26.0,16.0,30.11,WNW,283,0.0,1.0,65,0.00,,,0.00,,2013-03-01 07:41:00,
2013-02-28 23:51:00,26.0,16.0,30.11,NNW,345,0.0,0.0,66,0.00,,,0.00,,2013-03-01 07:51:00,